SHIJIAN-19 (SJ-19)

Last updated on Sat Oct 12 2024 00:02:05 GMT+0000 (Coordinated Universal Time)

1 61444U 24177A 24284.70845001 .00015258 00000+0 90833-4 0 9992 2 61444 41.6010 76.8644 0006944 34.8351 325.2950 15.77608314 2241

Satellite not in orbit

SHIJIAN-19 (SJ-19)